Total_Precipitation_Accumulation
2.47 2.45 2.35 2.40 2.37 2.31 2.18 2.01 1.87 1.80 1.67 1.55 1.44 1.46 1.46 1.42 1.40 1.44 1.43 1.48 1.55 1.57 1.61 1.70 1.80 1.83 1.93 1.98 2.04 2.07 2.16 2.20 2.18 1.97 1.83 1.79 1.76 1.74 1.77 1.61 1.51 1.44 1.34
2.16 2.23 2.32 2.34 2.25 2.13 1.93 1.80 1.68 1.55 1.40 1.34 1.31 1.35 1.33 1.25 1.24 1.22 1.16 1.20 1.28 1.39 1.47 1.51 1.59 1.60 1.65 1.65 1.75 1.81 1.84 1.90 1.95 2.00 2.02 1.95 1.87 1.82 1.74 1.58 1.35 1.19 1.15
1.96 1.96 2.13 2.18 2.06 1.90 1.73 1.65 1.56 1.42 1.35 1.34 1.30 1.27 1.24 1.16 1.08 1.03 1.03 1.03 1.02 1.11 1.22 1.27 1.33 1.33 1.31 1.30 1.37 1.39 1.48 1.58 1.77 1.86 1.88 1.94 1.91 1.90 1.92 1.65 1.44 1.39 1.08
1.98 2.13 2.15 2.06 1.92 1.82 1.62 1.43 1.33 1.24 1.28 1.33 1.27 1.18 1.08 1.01 0.96 0.98 1.01 0.99 0.95 0.97 1.01 1.06 1.08 1.03 1.01 1.03 1.06 1.12 1.25 1.49 1.66 1.72 1.66 1.69 1.77 1.74 1.87 1.76 1.62 1.48 1.27
1.94 1.94 1.89 1.81 1.74 1.71 1.63 1.47 1.31 1.19 1.14 1.20 1.11 1.05 0.98 0.89 0.83 0.85 0.89 0.89 0.88 0.88 0.90 0.92 0.89 0.86 0.88 0.87 0.83 0.93 1.12 1.36 1.48 1.56 1.58 1.54 1.55 1.59 1.63 1.55 1.53 1.52 1.40
1.68 1.68 1.60 1.57 1.62 1.57 1.54 1.43 1.33 1.23 1.16 1.16 1.10 0.99 0.88 0.75 0.78 0.78 0.73 0.76 0.83 0.90 0.88 0.81 0.76 0.74 0.72 0.73 0.74 0.83 0.96 1.08 1.20 1.32 1.38 1.40 1.41 1.43 1.51 1.52 1.52 1.54 1.51
1.52 1.46 1.46 1.47 1.43 1.41 1.28 1.21 1.25 1.27 1.18 1.11 1.00 0.89 0.83 0.78 0.71 0.67 0.71 0.77 0.84 0.91 0.91 0.91 0.77 0.63 0.70 0.74 0.76 0.80 0.86 0.90 0.99 1.15 1.25 1.26 1.31 1.41 1.56 1.56 1.57 1.56 1.50
1.46 1.38 1.32 1.33 1.29 1.26 1.23 1.21 1.21 1.19 1.13 1.08 0.98 0.88 0.80 0.72 0.69 0.67 0.69 0.71 0.81 0.85 0.84 0.86 0.87 0.82 0.78 0.82 0.80 0.82 0.86 0.91 0.97 1.04 1.18 1.21 1.17 1.26 1.45 1.47 1.49 1.46 1.39
1.25 1.21 1.13 1.15 1.21 1.22 1.20 1.24 1.20 1.12 1.07 1.00 0.94 0.89 0.84 0.73 0.68 0.64 0.67 0.74 0.80 0.75 0.68 0.69 0.70 0.70 0.69 0.75 0.81 0.90 0.92 0.92 0.83 0.87 0.92 1.00 1.11 1.17 1.23 1.29 1.41 1.54 1.49
1.12 1.11 1.02 1.02 1.09 1.17 1.18 1.20 1.11 1.04 0.99 0.87 0.85 0.88 0.87 0.81 0.69 0.60 0.63 0.66 0.71 0.68 0.65 0.64 0.63 0.60 0.59 0.57 0.65 0.85 0.98 0.96 0.88 0.88 0.99 1.14 1.21 1.22 1.18 1.26 1.39 1.49 1.47
0.96 1.02 1.02 1.00 1.02 1.03 1.05 1.09 1.05 0.97 0.94 0.91 0.89 0.91 0.89 0.82 0.70 0.59 0.59 0.57 0.58 0.60 0.64 0.65 0.64 0.56 0.49 0.49 0.57 0.72 0.80 0.78 0.86 1.07 1.28 1.34 1.32 1.26 1.18 1.16 1.31 1.44 1.49
0.94 1.06 1.07 1.04 0.93 0.91 1.04 1.09 1.02 0.96 0.91 0.92 0.92 0.92 0.91 0.88 0.74 0.63 0.58 0.54 0.53 0.56 0.59 0.60 0.57 0.52 0.44 0.46 0.50 0.58 0.62 0.72 0.96 1.21 1.36 1.33 1.16 1.03 1.01 0.98 1.04 1.20 1.33
0.99 1.05 1.08 1.02 0.98 0.97 1.00 1.00 0.95 0.90 0.82 0.82 0.82 0.84 0.84 0.77 0.69 0.62 0.57 0.51 0.49 0.51 0.52 0.52 0.52 0.54 0.55 0.61 0.63 0.61 0.67 0.87 1.09 1.22 1.23 1.14 1.03 0.97 0.95 0.96 0.94 1.07 1.14
1.03 1.01 1.01 1.03 1.02 0.95 0.88 0.84 0.82 0.80 0.75 0.71 0.72 0.74 0.69 0.65 0.58 0.51 0.49 0.49 0.48 0.51 0.51 0.56 0.65 0.72 0.74 0.76 0.79 0.85 0.89 0.95 0.98 1.07 1.06 0.99 0.89 0.89 0.92 0.90 0.93 0.99 1.09
0.96 0.89 0.88 0.91 0.90 0.85 0.73 0.66 0.65 0.59 0.52 0.51 0.52 0.54 0.52 0.51 0.49 0.45 0.44 0.47 0.44 0.47 0.53 0.66 0.83 0.90 0.92 0.89 0.85 0.86 0.89 0.88 0.90 0.89 0.87 0.85 0.85 0.85 0.84 0.82 0.87 0.89 1.00
0.84 0.79 0.76 0.79 0.77 0.70 0.65 0.59 0.53 0.41 0.38 0.36 0.35 0.37 0.37 0.41 0.40 0.35 0.38 0.41 0.41 0.48 0.54 0.76 0.90 0.93 0.93 0.83 0.77 0.73 0.74 0.75 0.72 0.73 0.75 0.78 0.81 0.81 0.81 0.79 0.80 0.85 0.93
0.77 0.76 0.67 0.63 0.67 0.64 0.59 0.59 0.60 0.46 0.36 0.33 0.33 0.36 0.38 0.39 0.37 0.37 0.35 0.40 0.44 0.48 0.54 0.67 0.78 0.85 0.85 0.75 0.68 0.67 0.70 0.69 0.65 0.66 0.70 0.73 0.75 0.75 0.78 0.79 0.79 0.83 0.85
0.64 0.60 0.57 0.57 0.55 0.52 0.50 0.49 0.52 0.59 0.59 0.52 0.40 0.37 0.38 0.42 0.42 0.39 0.37 0.45 0.51 0.50 0.56 0.62 0.67 0.73 0.75 0.71 0.67 0.67 0.67 0.67 0.65 0.65 0.66 0.69 0.72 0.73 0.71 0.71 0.73 0.74 0.79
0.50 0.46 0.44 0.42 0.43 0.43 0.44 0.43 0.44 0.48 0.54 0.56 0.54 0.46 0.43 0.48 0.49 0.46 0.44 0.45 0.51 0.54 0.56 0.58 0.58 0.61 0.62 0.63 0.65 0.65 0.64 0.62 0.62 0.62 0.63 0.67 0.69 0.69 0.69 0.65 0.63 0.63 0.71
0.45 0.40 0.35 0.33 0.33 0.35 0.36 0.38 0.43 0.43 0.43 0.50 0.52 0.45 0.43 0.51 0.56 0.53 0.46 0.44 0.48 0.51 0.51 0.54 0.56 0.57 0.56 0.53 0.52 0.54 0.57 0.56 0.53 0.55 0.60 0.65 0.69 0.70 0.66 0.60 0.61 0.66 0.71
0.36 0.34 0.30 0.28 0.30 0.32 0.32 0.35 0.38 0.36 0.39 0.43 0.39 0.35 0.41 0.48 0.53 0.50 0.48 0.47 0.50 0.53 0.55 0.54 0.51 0.52 0.48 0.46 0.48 0.49 0.51 0.51 0.51 0.53 0.57 0.62 0.62 0.60 0.57 0.53 0.51 0.53 0.57
0.32 0.32 0.27 0.25 0.27 0.30 0.32 0.33 0.31 0.32 0.33 0.34 0.33 0.31 0.39 0.43 0.48 0.50 0.50 0.51 0.52 0.55 0.55 0.53 0.51 0.49 0.47 0.46 0.46 0.45 0.45 0.48 0.52 0.56 0.56 0.55 0.52 0.48 0.45 0.43 0.41 0.42 0.47
0.27 0.29 0.28 0.27 0.26 0.28 0.30 0.33 0.30 0.27 0.28 0.30 0.29 0.29 0.32 0.38 0.44 0.49 0.50 0.51 0.54 0.55 0.53 0.51 0.48 0.45 0.44 0.41 0.40 0.41 0.42 0.43 0.43 0.44 0.47 0.47 0.44 0.42 0.39 0.40 0.40 0.41 0.45
0.25 0.27 0.26 0.24 0.25 0.27 0.29 0.29 0.25 0.23 0.27 0.29 0.31 0.33 0.34 0.37 0.40 0.47 0.53 0.54 0.54 0.53 0.48 0.43 0.41 0.39 0.38 0.37 0.36 0.34 0.35 0.35 0.32 0.31 0.35 0.37 0.36 0.37 0.35 0.37 0.39 0.40 0.42
0.22 0.23 0.22 0.21 0.23 0.28 0.28 0.25 0.23 0.24 0.24 0.28 0.31 0.34 0.34 0.34 0.38 0.44 0.51 0.56 0.56 0.51 0.42 0.37 0.34 0.33 0.33 0.33 0.31 0.29 0.31 0.31 0.28 0.28 0.32 0.35 0.33 0.34 0.36 0.39 0.41 0.38 0.38
0.20 0.22 0.21 0.23 0.25 0.23 0.23 0.22 0.22 0.23 0.25 0.27 0.28 0.31 0.32 0.34 0.37 0.40 0.42 0.45 0.48 0.47 0.39 0.31 0.27 0.28 0.29 0.30 0.28 0.26 0.26 0.26 0.26 0.29 0.32 0.35 0.35 0.34 0.35 0.37 0.38 0.38 0.38